www.pogodaiklimat.ru

Погода и климат >> Архив погоды >> Словакия >> Дудинце


ПОГОДА в Дудинце

  • Прогноз погоды в Дудинце
  • Монитор погоды в Дудинце

АРХИВ ПОГОДЫ в Дудинце

Время (UTC), дата Ветер
(напр.,м/с)
 
Видим.   Явления Облачность Т
(С)
Тd
(С)
f
(%)
Тe
(С)
Тes
(С)
Комфортность P
(гПа)
Po
(гПа)
Тmin
(С)
Tmax
(С)
R
(мм)
R24
(мм)
S
(см)
01 9.06 н/о н/о +13.3 +12.2 93 1022.9 1006.0
02 9.06 штиль 0 н/о н/о +13.0 +12.0 94 +12 +12 1022.9 1006.0
03 9.06 штиль 0 н/о н/о +12.5 +11.7 95 +12 +12 1023.1 1006.2
04 9.06 штиль 0 н/о н/о +13.9 +13.0 94 +13 +13 1023.4 1006.6
05 9.06 н/о н/о +16.4 +14.4 88 1023.7 1007.0
06 9.06 нст 1 20 км 5/4 1080 м
[Cu med, cong Ci fib]
+19.4 +15.9 80 +22 +26 комфорт 1023.5 1007.0 +12.5
07 9.06 В 2 25 км 5/4 1080 м
[Cu med, cong Ci fib]
+24.9 +16.1 58 +28 +33 жарко 1023.0 1006.8
08 9.06 ЮВ 2 30 км 6/5 1080 м
[Cu med, cong Ci fib]
+24.9 +16.1 58 +28 +34 жарко 1023.1 1006.9
09 9.06 нст 2 30 км 8/5 1000 м
[Cu med, cong Ci fib]
+26.1 +16.7 56 +30 +37 душно 1022.8 1006.7
10 9.06 Ю 2 30 км 6/4 1000 м
[Cu med, cong Ci fib]
+27.7 +17.3 53 +32 +42 очень
душно
1022.2 1006.2
11 9.06 В 2 30 км 5/4 1000 м
[Cu med, cong Ci fib]
+28.3 +18.1 54 +33 +44 очень
душно
1022.0 1005.8
12 9.06 В 2 30 км 6/5 1000 м
[Cu med, cong Ci fib]
+28.8 +18.6 54 +34 +42 очень
душно
1021.4 1005.4
13 9.06 В 3 30 км 5/4 900 м
[Cu med, cong Ci fib]
+29.7 +18.2 50 +34 +41 очень
душно
1020.8 1004.9
14 9.06 30 км 6/4 1000 м
[Cu med, cong Ci fib]
+29.5 +18.0 50 1020.2 1004.3
15 9.06 нст 2 30 км 5/4 1080 м
[Cu med, cong Ci fib]
+29.7 +18.5 51 +35 +39 очень
душно
1019.9 1004.0
16 9.06 30 км 3/1 1200 м
[Cu med, cong Ci fib]
+29.4 +18.2 51 1019.3 1003.4
17 9.06 30 км 3/1 1200 м
[Cu hum Ci fib]
+28.7 +18.2 53 1018.9 1003.0
18 9.06 нст 1 20 км 3/0
[Ci fib]
+27.0 +18.6 60 +32 +32 очень
душно
1018.9 1002.9 +30.1
19 9.06 штиль 0 25 км 4/0
[Ci fib]
+23.7 +18.8 74 +28 +28 душно 1019.6 1003.4
20 9.06 20 км 3/0
[Ci fib]
+21.4 +18.4 83 1019.9 1003.6
21 9.06 н/о н/о +20.1 +17.9 87 1020.0 1003.6
22 9.06 н/о н/о +18.9 +17.4 91 1020.2 1003.7
23 9.06 штиль 0 н/о н/о +17.6 +16.3 92 +18 +18 1020.2 1003.6
00 10.06 штиль 0 н/о н/о +17.2 +16.1 93 +17 +17 1020.1 1003.5
01 10.06 штиль 0 н/о н/о +17.2 +16.2 94 +17 +17 1020.1 1003.5
02 10.06 н/о н/о +17.4 +16.2 93 1019.8 1003.2
03 10.06 В 1 н/о н/о +16.9 +15.9 94 +18 +18 1019.6 1003.0
04 10.06 н/о н/о +17.7 +16.2 91 1019.3 1002.8
05 10.06 н/о н/о +20.9 +17.7 82 1018.6 1002.3
06 10.06 нст 1 20 км 3/0
[Ci fib]
+24.3 +18.0 68 +29 +35 душно 1018.4 1002.2 +16.7
07 10.06 25 км 1/0
[Ci fib]
+26.6 +18.2 60 1017.8 1001.8
08 10.06 30 км 1/0
[Ci fib]
+27.0 +18.1 58 1017.5 1001.5
09 10.06 В 3 30 км 1/0
[Ci fib]
+27.8 +18.2 56 +33 +46 очень
душно
1017.2 1001.3
10 10.06 В 3 30 км 1/1 1200 м
[Cu hum Ci fib]
+28.8 +18.9 55 +34 +47 очень
душно
1016.8 1000.9
11 10.06 В 3 30 км 3/3 1300 м
[Cu med, cong Ci fib]
+29.2 +17.7 50 +34 +44 очень
душно
1016.4 1000.5
12 10.06 нст 2 30 км 3/3 1300 м
[Cu med, cong]
+30.2 +19.3 52 +36 +48 очень
душно
1015.6 999.8
13 10.06 ЮВ 3 30 км 6/4 1380 м
[Cu med, cong Ci fib]
+30.6 +17.7 46 +35 +41 очень
душно
1015.2 999.4
14 10.06 В 3 30 км 4/4 1380 м
[Cu med, cong]
+31.1 +17.8 45 +35 +41 очень
душно
1014.2 998.5
15 10.06 В 2 30 км 5/3 1380 м
[Cu med, cong Ci fib]
+30.3 +17.8 47 +35 +39 очень
душно
1013.9 998.1
16 10.06 30 км 5/1 1500 м
[Cu med, cong Ci fib]
+30.0 +18.5 50 1013.4 997.6
17 10.06 30 км 8/0
[Ci fib]
+29.1 +19.2 55 1013.2 997.4
18 10.06 нст 2 30 км 8/0
[Ci fib]
+27.6 +19.7 62 +33 +34 очень
душно
1013.0 997.1 +31.1
19 10.06 25 км 6/0
[Ci fib]
+25.4 +18.8 67 1013.3 997.3
20 10.06 25 км 6/0
[Ci fib]
+21.8 +18.2 80 1014.3 998.1
21 10.06 н/о н/о +20.7 +18.3 86 1014.2 997.9
22 10.06 н/о н/о +19.9 +18.0 89 1014.3 998.0
23 10.06 штиль 0 н/о н/о +19.2 +17.0 87 +21 +21 комфорт 1014.1 997.7
00 11.06 штиль 0 н/о н/о +17.7 +16.6 93 +18 +18 1014.1 997.6
01 11.06 н/о н/о +17.2 +16.2 94 1014.1 997.6
02 11.06 штиль 0 н/о н/о +16.6 +15.6 94 +16 +16 1013.8 997.3
03 11.06 н/о н/о +16.7 +15.9 95 1013.9 997.4
04 11.06 н/о н/о +17.9 +15.9 88 1014.0 997.6
05 11.06 н/о н/о +21.1 +17.1 78 1014.0 997.7
06 11.06 нст 1 18 км ясно +25.1 +17.8 64 +29 +36 душно 1013.9 997.9 +16.2
07 11.06 В 3 25 км ясно +26.8 +18.4 60 +32 +39 очень
душно
1013.7 997.8
08 11.06 В 2 30 км ясно +27.6 +18.6 58 +33 +45 очень
душно
1013.8 997.9
09 11.06 В 4 30 км ясно +27.9 +18.9 58 +33 +44 очень
душно
1013.7 997.8
10 11.06 В 3 30 км ясно +29.1 +19.2 55 +35 +50 очень
душно
1013.4 997.6
11 11.06 В 4 30 км 3/3 1200 м
[Cu med, cong]
+29.9 +17.7 48 +34 +43 очень
душно
1013.2 997.4
12 11.06 В 3 30 км 1/1 1200 м
[Cu med, cong]
+31.0 +18.1 46 +35 +48 очень
душно
1012.5 996.8
13 11.06 В 3 30 км 3/3 1300 м
[Cu med, cong]
+31.1 +17.1 43 +35 +43 очень
душно
1012.1 996.4
14 11.06 В 3 30 км 3/3 1300 м
[Cu hum]
+31.4 +17.0 42 +35 +41 очень
душно
1011.9 996.2
15 11.06 В 3 30 км 1/1 1300 м
[Cu med, cong]
+31.0 +15.9 40 +34 +39 душно 1012.0 996.3
16 11.06 ЮВ 3 30 км 1/1 1500 м
[Cu med, cong]
+30.1 +17.2 46 +34 +37 очень
душно
1011.8 996.0
17 11.06 30 км 1/1 1500 м
[Cu med, cong Ac lent]
+29.6 +17.5 48 1011.9 996.1
18 11.06 нст 1 30 км 1/0
[Ac lent]
+28.6 +18.4 54 +33 +34 очень
душно
1012.6 996.8 +31.8
19 11.06 30 км 1/0
[Ac lent Ci sp]
+25.1 +19.0 69 1013.2 997.2
20 11.06 30 км 1/0
[Ac lent Ci sp]
+22.5 +18.1 76 1013.6 997.4
21 11.06 н/о н/о +20.3 +17.3 83 1013.9 997.6
22 11.06 н/о н/о +19.8 +17.4 86 1014.3 998.0
23 11.06 н/о н/о +19.4 +17.0 86 1014.4 998.0
00 12.06 н/о н/о +18.1 +16.1 88 1014.3 997.9
01 12.06 н/о н/о +17.9 +15.9 88 1014.2 997.7
02 12.06 н/о н/о +17.9 +16.1 89 1013.7 997.3
03 12.06 н/о н/о +18.3 +16.1 87 1013.6 997.2
04 12.06 н/о н/о +18.9 +16.3 85 1013.6 997.2
05 12.06 н/о н/о +22.6 +17.3 72 1013.9 997.7
06 12.06 В 2 30 км 1/0
[Ci fib]
+24.9 +17.4 63 +29 +34 душно 1014.3 998.2 +17.4
07 12.06 В 2 30 км 1/0
[Ci fib]
+25.9 +17.6 60 +30 +39 душно 1014.6 998.6
08 12.06 В 3 30 км 1/0
[Ci fib]
+27.5 +18.0 56 +32 +42 очень
душно
1014.3 998.4
09 12.06 ЮВ 4 30 км 1/0
[Ci fib]
+28.0 +19.0 58 +33 +44 очень
душно
1013.9 998.0
10 12.06 ЮВ 3 30 км 1/1 1500 м
[Cu hum Ci fib]
+29.2 +19.0 54 +35 +48 очень
душно
1013.7 997.9
11 12.06 ЮВ 4 30 км 4/4 1500 м
[Cu hum]
+29.8 +18.6 51 +35 +42 очень
душно
1013.5 997.7
12 12.06 ЮВ 3 30 км 4/4 1500 м
[Cu hum]
+30.5 +18.9 50 +36 +44 очень
душно
1012.9 997.2
13 12.06 ЮВ 3 30 км 3/3 1500 м
[Cu hum]
+30.7 +18.5 48 +36 +44 очень
душно
1012.5 996.8
14 12.06 В 3 30 км 1/0
[Ci fib]
+31.1 +18.5 47 +36 +45 очень
душно
1012.2 996.5
15 12.06 ЮВ 2 30 км 1/1 1500 м
[Cu hum]
+30.8 +18.2 47 +35 +42 очень
душно
1011.7 996.0
16 12.06 30 км 1/1 1500 м
[Cu hum]
+30.7 +18.5 48 1011.5 995.8
17 12.06 В 2 30 км ясно +29.6 +18.4 51 +34 +36 очень
душно
1011.5 995.7
18 12.06 В 2 30 км 1/0
[Ci fib]
+28.0 +19.0 58 +33 +34 очень
душно
1011.5 995.7 +31.4
19 12.06 25 км 1/0
[Ac lent Ci fib]
+26.1 +18.3 62 1012.3 996.3
20 12.06 20 км 1/0
[Ac lent Ci fib]
+23.1 +18.2 74 1012.6 996.5
21 12.06 н/о н/о +20.7 +17.5 82 1013.4 997.1
22 12.06 н/о н/о +20.4 +17.4 83 1013.8 997.5
23 12.06 н/о н/о +19.5 +16.9 85 1013.8 997.5
00 13.06 н/о н/о +18.2 +16.4 89 1013.8 997.4
01 13.06 н/о н/о +18.4 +16.7 90 1013.6 997.2
02 13.06 штиль 0 н/о н/о +16.8 +15.7 93 +17 +17 1013.8 997.3
03 13.06 н/о н/о +17.6 +16.1 91 1014.1 997.6
04 13.06 н/о н/о +17.5 +16.0 91 1014.1 997.6
05 13.06 н/о н/о +21.7 +17.7 78 1013.8 997.6
06 13.06 нст 1 30 км ясно +25.6 +18.8 66 +31 +37 очень
душно
1013.9 997.9 +16.7
07 13.06 В 2 30 км ясно +27.8 +18.5 57 +33 +42 очень
душно
1013.6 997.7
08 13.06 В 3 30 км ясно +29.0 +18.5 53 +34 +45 очень
душно
1013.4 997.6
09 13.06 ЮВ 3 30 км ясно +29.8 +17.6 48 +34 +47 очень
душно
1013.5 997.7
10 13.06 В 3 30 км ясно +30.8 +17.5 45 +35 +50 очень
душно
1013.2 997.5
11 13.06 В 3 30 км 1/0
[Ac lent]
+31.5 +17.8 44 +36 +50 очень
душно
1013.1 997.4
12 13.06 ЮВ 3 30 км 1/0
[Ac lent]
+32.1 +18.7 45 +37 +50 очень
душно
1012.8 997.2
13 13.06 В 3 30 км 1/1 1500 м
[Cu hum]
+32.2 +18.8 45 +37 +48 очень
душно
1012.6 997.0
14 13.06 В 3 30 км 1/1 1500 м
[Cu hum]
+32.3 +18.9 45 +37 +45 очень
душно
1012.3 996.7
15 13.06 В 3 30 км ясно +32.1 +18.4 44 +37 +43 очень
душно
1011.9 996.3
16 13.06 В 3 30 км ясно +31.5 +18.8 47 +37 +40 очень
душно
1011.7 996.0
17 13.06 30 км 1/1 1500 м
[Cb calv]
+30.7 +19.1 50 1011.5 995.8
18 13.06 В 2 30 км 4/3 1500 м
[Cb calv Ci fib]
+28.6 +18.7 55 +34 +34 очень
душно
1011.4 995.6 +32.5
19 13.06 В 1 25 км 4/3 1500 м
[Cu med, cong Ci fib]
+27.2 +18.5 59 +32 +32 очень
душно
1011.5 995.6
20 13.06 25 км 5/5 1300 м
[Cu med, cong]
+26.1 +18.5 63 1013.3 997.3
21 13.06 штиль 0 н/о н/о +24.7 +19.1 71 +30 +30 очень
душно
1013.5 997.5
22 13.06 н/о н/о +22.7 +18.7 78 1014.6 998.4
23 13.06 н/о н/о +22.3 +18.7 80 1014.2 998.0
00 14.06 н/о н/о +20.7 +18.1 85 1014.5 998.2
01 14.06 н/о н/о +19.7 +17.8 89 1014.5 998.2
02 14.06 н/о н/о +18.5 +17.0 91 1014.9 998.5
03 14.06 н/о н/о +17.5 +15.7 89 1015.5 999.0
04 14.06 н/о н/о +17.4 +15.6 89 1015.9 999.4
05 14.06 З 1 н/о н/о +20.5 +18.1 86 +25 +25 комфорт 1016.2 999.9
06 14.06 нст 1 25 км 1/0
[Ac trans]
+24.9 +18.8 69 +30 +36 душно 1016.3 1000.2 +16.5
07 14.06 30 км 3/0
[Ci sp]
+27.1 +19.7 64 1016.4 1000.4
08 14.06 30 км 1/0
[Ci fib]
+29.5 +18.9 53 1016.3 1000.5
09 14.06 нст 1 30 км 1/1 1500 м
[Cu hum]
+31.3 +16.1 40 +34 +51 опасность
солнечного
удара
1016.5 1000.7
10 14.06 30 км 1/1 1500 м
[Cu hum]
+31.8 +17.7 43 1016.7 1001.0
11 14.06 30 км 1/1 1500 м
[Cu hum]
+32.4 +17.1 40 1016.6 1000.9
12 14.06 нст 2 30 км 3/3 1500 м
[Cu med, cong]
+32.6 +18.8 44 +38 +49 очень
душно
1016.3 1000.6
13 14.06 30 км 3/3 1500 м
[Cu med, cong]
+32.7 +17.4 40 1016.0 1000.3
14 14.06 ЮЗ 2 30 км 1/1 1500 м
[Cu med, cong]
+32.9 +17.2 39 +36 +46 очень
душно
1016.0 1000.3
15 14.06 ЮЗ 2 30 км 1/1 1500 м
[Cu med, cong]
+32.7 +18.5 43 +37 +44 очень
душно
1015.6 999.9
16 14.06 30 км 1/1 1500 м
[Cu hum]
+32.1 +16.4 39 1015.5 999.8
17 14.06 30 км 1/0
[Ac lent]
+31.5 +18.2 45 1015.3 999.6
18 14.06 штиль 0 30 км 1/0
[Ac lent]
+29.2 +20.7 60 +36 +36 очень
душно
1015.3 999.5 +33.5
19 14.06 штиль 0 30 км 1/1 1500 м
[Cu med, cong Ac trans]
+25.8 +19.9 70 +32 +32 очень
душно
1016.1 1000.1
20 14.06 штиль 0 20 км ясно +23.5 +19.6 79 +29 +29 душно 1016.9 1000.7
21 14.06 н/о н/о +22.6 +18.8 79 1016.8 1000.6
22 14.06 н/о н/о +21.5 +18.5 83 1016.7 1000.4
23 14.06 штиль 0 н/о н/о +20.0 +17.8 87 +23 +23 комфорт 1016.4 1000.0
00 15.06 н/о н/о +20.0 +17.6 86 1016.0 999.7
01 15.06 н/о н/о +19.1 +17.4 90 1016.1 999.7
02 15.06 н/о н/о +18.3 +16.6 90 1016.0 999.6
03 15.06 н/о н/о +19.0 +16.8 87 1016.1 999.7
04 15.06 н/о н/о +19.9 +17.1 84 1016.0 999.6
05 15.06 н/о н/о +22.3 +18.3 78 1015.8 999.6
06 15.06 нст 2 20 км 1/0
[Ci fib]
+25.7 +19.1 67 +31 +36 очень
душно
1015.2 999.2 +18.1
07 15.06 В 2 25 км 1/0
[Ci fib]
+28.3 +20.6 63 +35 +44 очень
душно
1015.0 999.1
08 15.06 25 км 3/0
[Ci fib]
+30.1 +20.4 56 1014.6 998.8
09 15.06 В 3 25 км 4/0
[Ci fib]
+30.6 +20.8 56 +38 +50 очень
душно
1014.4 998.7
10 15.06 В 3 30 км 5/0
[Ci sp]
+31.1 +20.4 53 +38 +51 опасность
солнечного
удара
1014.3 998.6
11 15.06 В 4 30 км 5/1 1080 м
[Cu med, cong Ci sp]
+32.2 +19.2 46 +38 +48 очень
душно
1013.8 998.1
12 15.06 нст 2 30 км 6/3 1380 м
[Cu med, cong Ci sp]
+33.3 +17.9 40 +37 +48 очень
душно
1013.1 997.5
13 15.06 30 км 8/3 1380 м
[Cu med, cong Ci sp]
+32.9 +17.2 39 1012.6 997.0
14 15.06 ЮЗ 2 30 км 9/3 1080 м
[Cu med, cong Cs]
+32.0 +16.8 40 +35 +42 очень
душно
1012.6 996.9
15 15.06 нст 2 30 км 9/3 1300 м
[Cu med, cong Cs]
+32.7 +16.6 38 +36 +40 очень
душно
1011.9 996.3
16 15.06 ЮЗ 2 30 км 9/1 1300 м
[Cu med, cong Cs]
+31.6 +17.2 42 +35 +38 очень
душно
1011.9 996.2
17 15.06 30 км 8/0
[Cs]
+31.5 +16.3 40 1011.5 995.8
18 15.06 штиль 0 25 км 8/0
[Ci sp]
+29.3 +19.1 54 +35 +35 очень
душно
1011.4 995.6 +33.5
19 15.06 25 км 6/0
[Ci sp]
+24.9 +18.8 69 1011.5 995.5
20 15.06 20 км 5/0
[Ci sp]
+22.4 +18.2 77 1012.2 996.0
21 15.06 н/о н/о +20.8 +17.8 83 1013.0 996.7
22 15.06 н/о н/о +20.2 +17.6 85 1013.1 996.8
23 15.06 н/о н/о +19.1 +16.7 86 1013.0 996.6

 

Местоположение метеостанции Дудинце (Словакия): широта 48.17 долгота 18.87 высота над уровнем моря 140 м.

В архиве по умолчанию представлена погода в Дудинце за последнюю неделю. Архивные данные за месяц целиком и за предыдущие месяцы, начиная с января 2011 года, Вы можете получить, выбрав интересующий диапазон дат из раскрывающегося списка и нажав кнопку "Ввод!".


*Определитесь, кто Вы:
робот инопланетянин человек

Внимание! Время в таблицах - всемирное. Для получения местного времени необходимо прибавить поправку, которая равна 1 ч.

Смотрите также архив погоды в соседних городах и на ближайших метеорологических станциях:

Погода в Моховце (Словакия) (33 км)
Погода в Жьяр-над-Гроном (Словакия) (46 км)
Погода в Сечене (Польша) (49 км)
Погода в Тате (Венгрия) (51 км)
Погода в Нитре (Словакия) (56 км)
Погода в Слиаче (Словакия) (57 км)
Погода в Гурбаново (Словакия) (60 км)
Погода в Лученце (Словакия) (66 км)
Погода в Прьевидзе (Словакия) (70 км)
Погода в Тате (Венгрия) (71 км)

Пояснения к столбцам:

Ветер - указаны скорость ветра в м/с - средняя за 10 мин, порывы в срок и между сроками (в фигурных скобках) и направление, откуда дует ветер: С - северный, СВ - северо-восточный, В - восточный, ЮВ - юго-восточный, Ю - южный, ЮЗ - юго-западный, З - западный, СЗ - северо-западный.
Видимость - горизонтальная дальность видимости в метрах или километрах. При видимости от 1 до 10 км при отсутствии осадков обычно наблюдается дымка, при ухудшении видимости до 1 км и менее - туман. В сухую погоду видимость может ухудшаться дымом, пылью или мглою.
Явления - указаны атмосферные явления, наблюдавшиеся в срок или в последний час перед сроком; фигурными скобками обозначены явления, наблюдавшиеся между сроками (за 1-3 часа до срока); квадратными скобками обозначены град или гололедные отложения с указанием их диаметра в мм.
Облачность - указаны через наклонную черту общая и нижняя облачность в баллах и высота нижней границы облаков в метрах; квадратными скобками обозначены формы облаков: Ci - перистые, Cs - перисто-слоистые, Cc - перисто-кучевые, Ac - высококучевые, As - высокослоистые, Sc - слоисто-кучевые, Ns - слоисто-дождевые, Cu - кучевые, Cb - кучево-дождевые. Подробнее классификацию облаков см. в Атласе облаков (PDF).
T - Температура воздуха - температура, измеренная на высоте 2 м над землей.
Td - Температура точки росы - температура, при понижении до которой содержащийся в воздухе водяной пар достигнет насыщения.
f - Относительная влажность воздуха - влажноcть воздуха, измеренная на высоте 2 м над землей.
Te - Эффективная температура - температура, которую ощущает одетый по сезону человек в тени. Характеристика душности погоды. При расчете учитывается влияние влажности воздуха и скорости ветра на теплоощущения человека.
Tes - Эффективная температура на солнце - температура, которую ощущает человек, с поправкой на солнечный нагрев. Характеристика знойности погоды. Зависит от высоты солнца над горизонтом, облачности и скорости ветра. Ночью, в пасмурную погоду, а также при ветре 12 м/с и более поправка равна нулю.
P - Атмосферное давление - приведенное к уровню моря атмосферное давление.
Po - Атмосферное давление - измеренное на уровне метеостанции атмосферное давление.
Tmin - Минимальная температура - минимум температуры воздуха на высоте 2 м над землей.
Tmax - Максимальная температура - максимум температуры воздуха на высоте 2 м над землей.
R - Количество осадков - Количество выпавших осадков за период времени, мм. При наведении курсора мыши на число - период времени, за который выпало указанное количество осадков.
R24 - Количество осадков - Количество выпавших осадков за 24 часа, мм.
S - Снежный покров - Высота снежного покрова, см. При наведении курсора мыши на число - состояние снежного покрова и степень покрытия местности в баллах.